Date String (YYYY-MM-DD hh:mm:ss) UTC,Instrument flags,absolute air pressure of the measurement (hPa),sample flow rate (lpm),inlet stack bypass flow (lpm),air temperature of the measurement (°C),ambient temperature measured by the external sensor (°C),aerosol sample conditioner tube jacket temperature (°C),OPC LED temperature (°C),internal box temperature (°C),relative humidity of the measurement (%),span deviation,mass concentration of particles derived from Lorenz-Mie calculation of OPC scattering (μg/m³),mass concentration of particles derived from Lorenz-Mie calculation of OPC scattering (μg/m³),mass concentration of particles derived from Lorenz-Mie calculation of OPC scattering (μg/m³)
DateTimeUTC,F1_M11,P_M11,Q1_M11,Q2_M11,T1_M11,T2_M11,T3_M11,T4_M11,T5_M11,U1_M11,ZSPAN_M11,X2_M11,X0_M11,X1_M11
2023-12-12 18:00:00,SystemResetWarning,0833.4,5.00,000.00,020.2,019.2,000.0,028.5,021.4,19.8,0000.0,0005.73,0008.12,0005.45
2023-12-12 18:01:00,SystemResetWarning,0833.4,5.00,000.00,020.2,019.2,000.0,028.5,021.4,19.8,0000.0,0005.74,0008.14,0005.46
2023-12-12 18:02:00,SystemResetWarning,0833.4,5.00,000.00,020.2,019.2,000.0,028.5,021.5,19.9,0000.0,0005.73,0008.12,0005.45
2023-12-12 18:03:00,SystemResetWarning,0833.4,5.00,000.00,020.2,019.2,000.0,028.5,021.5,19.9,0000.0,0005.72,0008.18,0005.45
2023-12-12 18:04:00,SystemResetWarning,0833.4,5.00,000.00,020.2,019.2,000.0,028.5,021.4,19.9,0000.0,0005.71,0008.15,0005.45
2023-12-12 18:05:00,SystemResetWarning,0833.4,5.00,000.00,020.2,019.2,000.0,028.5,021.4,20.0,0000.0,0005.71,0008.13,0005.45
2023-12-12 18:06:00,SystemResetWarning,0833.4,5.01,000.00,020.2,019.2,000.0,028.5,021.4,19.9,0000.0,0005.71,0008.07,0005.44
2023-12-12 18:07:00,SystemResetWarning,0833.4,5.00,000.00,020.2,019.2,000.0,028.5,021.4,20.0,0000.0,0005.68,0008.05,0005.40
2023-12-12 18:08:00,SystemResetWarning,0833.4,5.01,000.00,020.2,019.2,000.0,028.5,021.4,20.0,0000.0,0005.66,0008.00,0005.37
2023-12-12 18:09:00,SystemResetWarning,0833.4,5.00,000.00,020.2,019.2,000.0,028.5,021.4,20.0,0000.0,0005.64,0008.00,0005.33
2023-12-12 18:10:00,SystemResetWarning,0833.4,5.00,000.00,020.2,019.2,000.0,028.5,021.4,20.0,0000.0,0005.58,0007.91,0005.29
2023-12-12 18:11:00,SystemResetWarning,0833.4,5.00,000.00,020.2,019.2,000.0,028.5,021.4,20.0,0000.0,0005.56,0007.89,0005.26
2023-12-12 18:12:00,SystemResetWarning,0833.4,5.01,000.00,020.2,019.2,000.0,028.5,021.4,20.0,0000.0,0005.54,0007.85,0005.23
2023-12-12 18:13:00,SystemResetWarning,0833.4,5.00,000.00,020.2,019.2,000.0,028.5,021.4,20.1,0000.0,0005.55,0007.89,0005.21
2023-12-12 18:14:00,SystemResetWarning,0833.4,5.00,000.00,020.2,019.2,000.0,028.5,021.4,20.0,0000.0,0005.54,0007.81,0005.21
2023-12-12 18:15:00,SystemResetWarning,0833.4,5.00,000.00,020.2,019.2,000.0,028.5,021.4,20.1,0000.0,0005.51,0007.73,0005.19
2023-12-12 18:16:00,SystemResetWarning,0833.4,5.00,000.00,020.2,019.2,000.0,028.5,021.4,20.1,0000.0,0005.47,0007.65,0005.18
2023-12-12 18:17:00,SystemResetWarning,0833.4,5.00,000.00,020.2,019.2,000.0,028.5,021.4,20.1,0000.0,0005.44,0007.62,0005.17
2023-12-12 18:18:00,SystemResetWarning,0833.4,5.00,000.00,020.2,019.2,000.0,028.5,021.4,20.1,0000.0,0005.45,0007.66,0005.18
2023-12-12 18:19:00,SystemResetWarning,0833.3,5.00,000.00,020.2,019.2,000.0,028.5,021.4,20.1,0000.0,0005.47,0007.70,0005.20
2023-12-12 18:20:00,SystemResetWarning,0833.3,5.00,000.00,020.2,019.2,000.0,028.5,021.4,20.2,0000.0,0005.50,0007.96,0005.23
2023-12-12 18:21:00,SystemResetWarning,0833.3,5.00,000.00,020.2,019.2,000.0,028.5,021.4,20.2,0000.0,0005.53,0008.10,0005.25
2023-12-12 18:22:00,SystemResetWarning,0833.3,5.00,000.00,020.2,019.2,000.0,028.5,021.4,20.2,0000.0,0005.55,0008.12,0005.26
2023-12-12 18:23:00,SystemResetWarning,0833.3,5.00,000.00,020.2,019.2,000.0,028.4,021.4,20.2,0000.0,0005.54,0008.11,0005.27
2023-12-12 18:24:00,SystemResetWarning,0833.2,4.99,000.00,020.2,019.2,000.0,028.4,021.4,20.2,0000.0,0005.52,0008.08,0005.27
2023-12-12 18:25:00,SystemResetWarning,0833.2,5.00,000.00,020.2,019.2,000.0,028.4,021.4,20.2,0000.0,0005.52,0008.12,0005.27
2023-12-12 18:26:00,SystemResetWarning,0833.2,5.00,000.00,020.2,019.2,000.0,028.5,021.4,20.2,0000.0,0005.51,0008.12,0005.26
2023-12-12 18:27:00,SystemResetWarning,0833.2,5.00,000.00,020.2,019.2,000.0,028.5,021.4,20.2,0000.0,0005.49,0008.11,0005.25
2023-12-12 18:28:00,SystemResetWarning,0833.2,5.00,000.00,020.2,019.2,000.0,028.4,021.4,20.1,0000.0,0005.48,0008.11,0005.24
2023-12-12 18:29:00,SystemResetWarning,0833.2,5.00,000.00,020.1,019.2,000.0,028.5,021.4,20.2,0000.0,0005.46,0008.06,0005.23
2023-12-12 18:30:00,SystemResetWarning,0833.2,5.00,000.00,020.1,019.2,000.0,028.5,021.4,20.2,0000.0,0005.44,0008.03,0005.21
2023-12-12 18:31:00,SystemResetWarning,0833.2,5.00,000.00,020.1,019.2,000.0,028.5,021.4,20.2,0000.0,0005.44,0007.82,0005.19
2023-12-12 18:32:00,SystemResetWarning,0833.2,5.00,000.00,020.1,019.2,000.0,028.4,021.4,20.2,0000.0,0005.41,0007.66,0005.19
2023-12-12 18:33:00,SystemResetWarning,0833.2,5.00,000.00,020.1,019.2,000.0,028.4,021.4,20.2,0000.0,0005.39,0007.80,0005.19
2023-12-12 18:34:00,SystemResetWarning,0833.1,4.99,000.00,020.1,019.2,000.0,028.4,021.4,20.2,0000.0,0005.39,0008.07,0005.19
2023-12-12 18:35:00,SystemResetWarning,0833.1,4.99,000.00,020.1,019.2,000.0,028.4,021.4,20.2,0000.0,0005.38,0008.14,0005.17
2023-12-12 18:36:00,SystemResetWarning,0833.2,4.99,000.00,020.1,019.2,000.0,028.4,021.4,20.2,0000.0,0005.36,0008.16,0005.16
2023-12-12 18:37:00,SystemResetWarning,0833.0,5.00,000.00,020.1,019.2,000.0,028.4,021.4,20.2,0000.0,0005.36,0008.17,0005.16
2023-12-12 18:38:00,SystemResetWarning,0833.0,5.00,000.00,020.1,019.2,000.0,028.4,021.4,20.2,0000.0,0005.37,0008.19,0005.15
2023-12-12 18:39:00,SystemResetWarning,0833.2,5.01,000.00,020.1,019.2,000.0,028.4,021.4,20.2,0000.0,0005.38,0008.20,0005.16
2023-12-12 18:40:00,SystemResetWarning,0833.2,5.00,000.00,020.1,019.2,000.0,028.4,021.4,20.2,0000.0,0005.40,0008.23,0005.16
2023-12-12 18:41:00,SystemResetWarning,0833.0,5.01,000.00,020.1,019.2,000.0,028.4,021.4,20.2,0000.0,0005.38,0008.19,0005.16
2023-12-12 18:42:00,SystemResetWarning,0833.0,5.00,000.00,020.1,019.2,000.0,028.4,021.4,20.2,0000.0,0005.36,0008.17,0005.15
2023-12-12 18:43:00,SystemResetWarning,0832.9,5.00,000.00,020.1,019.2,000.0,028.4,021.4,20.2,0000.0,0005.36,0008.21,0005.15
2023-12-12 18:44:00,SystemResetWarning,0832.9,4.99,000.00,020.1,019.2,000.0,028.4,021.4,20.2,0000.0,0005.36,0008.08,0005.14
2023-12-12 18:45:00,SystemResetWarning,0833.1,4.99,000.00,020.1,019.2,000.0,028.4,021.4,20.2,0000.0,0005.33,0007.71,0005.11
2023-12-12 18:46:00,SystemResetWarning,0832.9,5.00,000.00,020.1,019.2,000.0,028.4,021.4,20.2,0000.0,0005.30,0007.61,0005.09
2023-12-12 18:47:00,SystemResetWarning,0833.2,5.01,000.00,020.1,019.2,000.0,028.4,021.4,20.2,0000.0,0005.31,0007.53,0005.08
2023-12-12 18:48:00,SystemResetWarning,0833.0,5.01,000.00,020.1,019.2,000.0,028.4,021.4,20.2,0000.0,0005.30,0007.53,0005.07
2023-12-12 18:49:00,SystemResetWarning,0833.3,5.00,000.00,020.1,019.2,000.0,028.4,021.4,20.2,0000.0,0005.29,0007.65,0005.07
2023-12-12 18:50:00,SystemResetWarning,0833.4,5.00,000.00,020.1,019.2,000.0,028.4,021.4,20.2,0000.0,0005.28,0007.65,0005.06
2023-12-12 18:51:00,SystemResetWarning,0833.5,4.99,000.00,020.1,019.2,000.0,028.4,021.3,20.3,0000.0,0005.27,0007.66,0005.05
2023-12-12 18:52:00,SystemResetWarning,0833.4,5.00,000.00,020.1,019.2,000.0,028.4,021.3,20.3,0000.0,0005.30,0007.75,0005.04
2023-12-12 18:53:00,SystemResetWarning,0833.4,5.00,000.00,020.1,019.2,000.0,028.4,021.3,20.3,0000.0,0005.29,0007.71,0005.03
2023-12-12 18:54:00,SystemResetWarning,0833.2,5.00,000.00,020.1,019.2,000.0,028.4,021.4,20.3,0000.0,0005.27,0008.04,0005.00
2023-12-12 18:55:00,SystemResetWarning,0832.9,5.00,000.00,020.1,019.2,000.0,028.4,021.3,20.3,0000.0,0005.28,0008.22,0004.99
2023-12-12 18:56:00,SystemResetWarning,0832.8,5.00,000.00,020.1,019.2,000.0,028.4,021.4,20.4,0000.0,0005.28,0008.27,0004.98
2023-12-12 18:57:00,SystemResetWarning,0832.8,5.01,000.00,020.1,019.2,000.0,028.4,021.3,20.4,0001.2,0005.29,0008.31,0004.99
2023-12-12 18:58:00,SystemResetWarning,0832.8,5.00,000.00,020.1,019.2,000.0,028.4,021.4,20.4,0000.0,0005.27,0008.30,0004.97
2023-12-12 18:59:00,SystemResetWarning,0832.8,5.00,000.00,020.1,019.2,000.0,028.4,021.4,20.4,0000.0,0005.26,0008.74,0004.96
